Asheville, NC

9:50 PM EDT on April 24, 2018 (GMT -0400)
Asheville Regional

Weather History for KAVL - December, 2009

Change the Weather History Date:

Tuesday, December 29, 2009

  Actual Average Record
Temperature  
Mean Temperature 32 °F 37 °F  
Max Temperature 40 °F 47 °F 74 °F (1984)
Min Temperature 23 °F 27 °F -3 °F (1894)
Degree Days  
Heating Degree Days 33 28  
Month to date heating degree days 815 738  
Since 1 July heating degree days 1621 1605  
Cooling Degree Days 0 0  
Month to date cooling degree days 0 0  
Year to date cooling degree days 774 863  
Moisture  
Dew Point 15 °F    
Average Humidity 52    
Maximum Humidity 74    
Minimum Humidity 30    
Precipitation  
Precipitation T in 0.11 in 2.90 in (1901)
Month to date precipitation 9.06 3.39  
Year to date precipitation 62.03 45.37  
Snow  
Snow T in 0.10 in 4.90 in (1935)
Month to date snowfall 10.1 0.8  
Since 1 July snowfall 10.1 0.9  
Snow Depth 0.00 in    
Sea Level Pressure  
Sea Level Pressure 30.27 in    
Wind  
Wind Speed 12 mph (NNW)    
Max Wind Speed 28 mph    
Max Gust Speed 37 mph    
Visibility 10 miles    
Events      
T = Trace of Precipitation, MM = Missing Value Source: NWS Daily Summary

Daily Weather History Graph

Daily Weather History Graph

Search for Another Location

Airport or City:

Astronomy

Dec. 29, 2009 Rise Set
Actual Time 7:38 AM EST 5:26 PM EST
Civil Twilight 7:10 AM EST 5:54 PM EST
Nautical Twilight 6:38 AM EST 6:26 PM EST
Astronomical Twilight 6:07 AM EST 6:57 PM EST
Moon 3:15 PM EST (12/29) 5:26 AM EST (12/29)
Length of Visible Light 10h 44m
Length of Day
9h 47m
Waxing Gibbous, 94% of the Moon is Illuminated
Dec 29
Waxing Gibbous
Dec 31
Full
Jan 7
Last Quarter
Jan 15
New
Jan 23
First Quarter

Hourly Weather History & Observations

Time (EST) Temp. Windchill Dew Point Humidity Pressure Visibility Wind Dir Wind Speed Gust Speed Precip Events Conditions
12:54 AM 28.0 °F 14.6 °F 17.1 °F 63% 30.11 in 10.0 mi NNW 20.7 mph 32.2 mph N/A   Mostly Cloudy
1:54 AM 26.1 °F 12.0 °F 17.1 °F 69% 30.12 in 10.0 mi NNW 20.7 mph 33.4 mph N/A   Mostly Cloudy
2:21 AM 24.8 °F 9.6 °F 17.6 °F 74% 30.09 in 10.0 mi NNW 23.0 mph 32.2 mph 0.00 in   Overcast
2:54 AM 25.0 °F 11.3 °F 17.1 °F 72% 30.14 in 10.0 mi NNW 18.4 mph 32.2 mph 0.00 in   Overcast
3:19 AM 24.8 °F 11.9 °F 17.6 °F 74% 30.11 in 10.0 mi NNW 16.1 mph 27.6 mph 0.00 in   Overcast
3:54 AM 25.0 °F 11.3 °F 18.0 °F 75% 30.15 in 10.0 mi NNW 18.4 mph 31.1 mph 0.00 in   Overcast
4:54 AM 25.0 °F 12.2 °F 17.1 °F 72% 30.16 in 10.0 mi North 16.1 mph 28.8 mph N/A   Overcast
5:54 AM 25.0 °F 9.2 °F 18.0 °F 75% 30.18 in 10.0 mi NNW 25.3 mph 34.5 mph N/A   Overcast
6:54 AM 25.0 °F 11.7 °F 17.1 °F 72% 30.21 in 10.0 mi NNW 17.3 mph 25.3 mph N/A   Overcast
7:49 AM 24.8 °F 11.9 °F 15.8 °F 69% 30.22 in 10.0 mi NNW 16.1 mph 24.2 mph N/A   Scattered Clouds
7:54 AM 25.0 °F 11.7 °F 16.0 °F 69% 30.27 in 10.0 mi NNW 17.3 mph 24.2 mph N/A   Partly Cloudy
8:54 AM 26.1 °F 14.5 °F 16.0 °F 66% 30.30 in 10.0 mi North 13.8 mph 24.2 mph N/A   Clear
9:54 AM 27.0 °F 14.7 °F 14.0 °F 58% 30.33 in 10.0 mi North 16.1 mph 31.1 mph N/A   Clear
10:54 AM 28.9 °F 16.9 °F 14.0 °F 54% 30.33 in 10.0 mi North 17.3 mph 25.3 mph N/A   Clear
11:54 AM 32.0 °F 20.5 °F 14.0 °F 48% 30.32 in 10.0 mi NNW 18.4 mph 27.6 mph N/A   Clear
12:54 PM 35.1 °F 25.2 °F 12.9 °F 40% 30.30 in 10.0 mi NNW 16.1 mph 26.5 mph N/A   Clear
1:54 PM 37.9 °F 28.9 °F 10.0 °F 32% 30.28 in 10.0 mi NNW 16.1 mph 25.3 mph N/A   Clear
2:54 PM 39.0 °F 30.3 °F 10.0 °F 30% 30.30 in 10.0 mi NNW 16.1 mph 20.7 mph N/A   Clear
3:54 PM 39.9 °F 33.4 °F 10.0 °F 29% 30.30 in 10.0 mi North 10.4 mph - N/A   Clear
4:54 PM 37.9 °F 32.7 °F 10.0 °F 32% 30.30 in 10.0 mi North 6.9 mph - N/A   Clear
5:54 PM 35.1 °F - 12.9 °F 40% 30.33 in 10.0 mi Calm Calm - N/A   Clear
6:54 PM 30.0 °F - 14.0 °F 51% 30.35 in 10.0 mi Calm Calm - N/A   Clear
7:54 PM 28.9 °F 23.9 °F 12.9 °F 51% 30.38 in 10.0 mi NNW 4.6 mph - N/A   Clear
8:54 PM 27.0 °F - 15.1 °F 61% 30.39 in 10.0 mi Calm Calm - N/A   Clear
9:54 PM 25.0 °F - 18.0 °F 75% 30.41 in 10.0 mi Calm Calm - N/A   Clear
10:54 PM 25.0 °F - 18.0 °F 75% 30.41 in 10.0 mi Calm Calm - N/A   Clear
11:54 PM 24.1 °F - 18.0 °F 77% 30.41 in 10.0 mi Calm Calm - N/A   Clear